Year,Month,Day,Hour,Minute,Value (Times are PST for temperature in C)
2007,07,13,00,00,17.30
2007,07,13,00,01,17.30
2007,07,13,00,02,17.30
2007,07,13,00,03,17.30
2007,07,13,00,04,17.30
2007,07,13,00,05,17.30
2007,07,13,00,06,17.30
2007,07,13,00,07,17.30
2007,07,13,00,08,17.30
2007,07,13,00,09,17.30
2007,07,13,00,10,17.30
2007,07,13,00,11,17.30
2007,07,13,00,12,17.30
2007,07,13,00,13,17.30
2007,07,13,00,14,17.30
2007,07,13,00,15,17.30
2007,07,13,00,16,17.30
2007,07,13,00,17,17.30
2007,07,13,00,18,17.30
2007,07,13,00,19,17.30
2007,07,13,00,20,17.30
2007,07,13,00,21,17.30
2007,07,13,00,22,17.30
2007,07,13,00,23,17.20
2007,07,13,00,24,17.20
2007,07,13,00,25,17.20
2007,07,13,00,26,17.20
2007,07,13,00,27,17.20
2007,07,13,00,28,17.10
2007,07,13,00,29,17.10
2007,07,13,00,30,17.10
2007,07,13,00,31,17.10
2007,07,13,00,32,17.10
2007,07,13,00,33,17.00
2007,07,13,00,34,17.00
2007,07,13,00,35,17.00
2007,07,13,00,36,17.00
2007,07,13,00,37,17.00
2007,07,13,00,38,16.90
2007,07,13,00,39,16.90
2007,07,13,00,40,16.90
2007,07,13,00,41,16.90
2007,07,13,00,42,16.90
2007,07,13,00,43,16.90
2007,07,13,00,44,16.80
2007,07,13,00,45,16.80
2007,07,13,00,46,16.80
2007,07,13,00,47,16.80
2007,07,13,00,48,16.80
2007,07,13,00,49,16.80
2007,07,13,00,50,16.80
2007,07,13,00,51,16.80
2007,07,13,00,52,16.80
2007,07,13,00,53,16.80
2007,07,13,00,54,16.80
2007,07,13,00,55,16.80
2007,07,13,00,56,16.80
2007,07,13,00,57,16.80
2007,07,13,00,58,16.90
2007,07,13,00,59,16.90
2007,07,13,01,00,16.90
2007,07,13,01,01,16.90
2007,07,13,01,02,16.90
2007,07,13,01,03,16.90
2007,07,13,01,04,16.90
2007,07,13,01,05,16.90
2007,07,13,01,06,16.90
2007,07,13,01,07,16.90
2007,07,13,01,08,16.90
2007,07,13,01,09,16.90
2007,07,13,01,10,16.90
2007,07,13,01,11,16.90
2007,07,13,01,12,16.90
2007,07,13,01,13,17.00
2007,07,13,01,14,17.00
2007,07,13,01,15,17.00
2007,07,13,01,16,17.00
2007,07,13,01,17,17.00
2007,07,13,01,18,17.00
2007,07,13,01,19,17.00
2007,07,13,01,20,17.00
2007,07,13,01,21,17.00
2007,07,13,01,22,17.00
2007,07,13,01,23,17.00
2007,07,13,01,24,17.10
2007,07,13,01,25,17.10
2007,07,13,01,26,17.10
2007,07,13,01,27,17.10
2007,07,13,01,28,17.10
2007,07,13,01,29,17.10
2007,07,13,01,30,17.10
2007,07,13,01,31,17.10
2007,07,13,01,32,17.10
2007,07,13,01,33,17.00
2007,07,13,01,34,17.00
2007,07,13,01,35,17.00
2007,07,13,01,36,17.00
2007,07,13,01,37,17.00
2007,07,13,01,38,17.00
2007,07,13,01,39,17.00
2007,07,13,01,40,17.00
2007,07,13,01,41,17.00
2007,07,13,01,42,17.00
2007,07,13,01,43,17.00
2007,07,13,01,44,17.00
2007,07,13,01,45,17.00
2007,07,13,01,46,17.00
2007,07,13,01,47,17.00
2007,07,13,01,48,17.00
2007,07,13,01,49,17.00
2007,07,13,01,50,17.00
2007,07,13,01,51,17.00
2007,07,13,01,52,17.00
2007,07,13,01,53,17.10
2007,07,13,01,54,17.00
2007,07,13,01,55,17.00
2007,07,13,01,56,17.00
2007,07,13,01,57,17.00
2007,07,13,01,58,17.00
2007,07,13,01,59,17.00
2007,07,13,02,00,17.00
2007,07,13,02,01,17.00
2007,07,13,02,02,17.00
2007,07,13,02,03,17.00
2007,07,13,02,04,16.90
2007,07,13,02,05,16.90
2007,07,13,02,06,16.90
2007,07,13,02,07,16.90
2007,07,13,02,08,16.90
2007,07,13,02,09,16.90
2007,07,13,02,10,16.90
2007,07,13,02,11,16.90
2007,07,13,02,12,16.90
2007,07,13,02,13,16.90
2007,07,13,02,14,16.90
2007,07,13,02,15,16.90
2007,07,13,02,16,16.90
2007,07,13,02,17,16.90
2007,07,13,02,18,16.90
2007,07,13,02,19,16.90
2007,07,13,02,20,16.90
2007,07,13,02,21,16.90
2007,07,13,02,22,16.90
2007,07,13,02,23,16.90
2007,07,13,02,24,16.90
2007,07,13,02,25,16.90
2007,07,13,02,26,16.90
2007,07,13,02,27,16.90
2007,07,13,02,28,16.90
2007,07,13,02,29,16.90
2007,07,13,02,30,16.90
2007,07,13,02,31,16.90
2007,07,13,02,32,16.90
2007,07,13,02,33,16.90
2007,07,13,02,34,16.90
2007,07,13,02,35,16.90
2007,07,13,02,36,16.90
2007,07,13,02,37,16.80
2007,07,13,02,38,16.80
2007,07,13,02,39,16.80
2007,07,13,02,40,16.80
2007,07,13,02,41,16.80
2007,07,13,02,42,16.70
2007,07,13,02,43,16.70
2007,07,13,02,44,16.70
2007,07,13,02,45,16.70
2007,07,13,02,46,16.70
2007,07,13,02,47,16.70
2007,07,13,02,48,16.70
2007,07,13,02,49,16.70
2007,07,13,02,50,16.70
2007,07,13,02,51,16.70
2007,07,13,02,52,16.70
2007,07,13,02,53,16.70
2007,07,13,02,54,16.70
2007,07,13,02,55,16.60
2007,07,13,02,56,16.60
2007,07,13,02,57,16.60
2007,07,13,02,58,16.60
2007,07,13,02,59,16.60
2007,07,13,03,00,16.60
2007,07,13,03,01,16.50
2007,07,13,03,02,16.40
2007,07,13,03,03,16.40
2007,07,13,03,04,16.40
2007,07,13,03,05,16.40
2007,07,13,03,06,16.40
2007,07,13,03,07,16.40
2007,07,13,03,08,16.40
2007,07,13,03,09,16.40
2007,07,13,03,10,16.40
2007,07,13,03,11,16.40
2007,07,13,03,12,16.40
2007,07,13,03,13,16.30
2007,07,13,03,14,16.30
2007,07,13,03,15,16.30
2007,07,13,03,16,16.30
2007,07,13,03,17,16.30
2007,07,13,03,18,16.20
2007,07,13,03,19,16.20
2007,07,13,03,20,16.10
2007,07,13,03,21,16.10
2007,07,13,03,22,16.10
2007,07,13,03,23,16.10
2007,07,13,03,24,16.10
2007,07,13,03,25,15.90
2007,07,13,03,26,15.90
2007,07,13,03,27,15.90
2007,07,13,03,28,15.80
2007,07,13,03,29,15.80
2007,07,13,03,30,15.80
2007,07,13,03,31,15.80
2007,07,13,03,32,15.80
2007,07,13,03,33,15.80
2007,07,13,03,34,15.70
2007,07,13,03,35,15.70
2007,07,13,03,36,15.70
2007,07,13,03,37,15.70
2007,07,13,03,38,15.60
2007,07,13,03,39,15.60
2007,07,13,03,40,15.60
2007,07,13,03,41,15.60
2007,07,13,03,42,15.60
2007,07,13,03,43,15.60
2007,07,13,03,44,15.60
2007,07,13,03,45,15.60
2007,07,13,03,46,15.60
2007,07,13,03,47,15.60
2007,07,13,03,48,15.60
2007,07,13,03,49,15.60
2007,07,13,03,50,15.60
2007,07,13,03,51,15.50
2007,07,13,03,52,15.50
2007,07,13,03,53,15.50
2007,07,13,03,54,15.50
2007,07,13,03,55,15.50
2007,07,13,03,56,15.50
2007,07,13,03,57,15.50
2007,07,13,03,58,15.50
2007,07,13,03,59,15.50
2007,07,13,04,00,15.50
2007,07,13,04,01,15.50
2007,07,13,04,02,15.50
2007,07,13,04,03,15.60
2007,07,13,04,04,15.60
2007,07,13,04,05,15.60
2007,07,13,04,06,15.60
2007,07,13,04,07,15.60
2007,07,13,04,08,15.60
2007,07,13,04,09,15.60
2007,07,13,04,10,15.60
2007,07,13,04,11,15.60
2007,07,13,04,12,15.60
2007,07,13,04,13,15.60
2007,07,13,04,14,15.50
2007,07,13,04,15,15.50
2007,07,13,04,16,15.50
2007,07,13,04,17,15.50
2007,07,13,04,18,15.40
2007,07,13,04,19,15.40
2007,07,13,04,20,15.30
2007,07,13,04,21,15.30
2007,07,13,04,22,15.30
2007,07,13,04,23,15.30
2007,07,13,04,24,15.30
2007,07,13,04,25,15.30
2007,07,13,04,26,15.30
2007,07,13,04,27,15.30
2007,07,13,04,28,15.30
2007,07,13,04,29,15.30
2007,07,13,04,30,15.30
2007,07,13,04,31,15.30
2007,07,13,04,32,15.30
2007,07,13,04,33,15.30
2007,07,13,04,34,15.30
2007,07,13,04,35,15.30
2007,07,13,04,36,15.30
2007,07,13,04,37,15.30
2007,07,13,04,38,15.40
2007,07,13,04,39,15.40
2007,07,13,04,40,15.40
2007,07,13,04,41,15.50
2007,07,13,04,42,15.50
2007,07,13,04,43,15.50
2007,07,13,04,44,15.50
2007,07,13,04,45,15.50
2007,07,13,04,46,15.50
2007,07,13,04,47,15.50
2007,07,13,04,48,15.50
2007,07,13,04,49,15.50
2007,07,13,04,50,15.40
2007,07,13,04,51,15.40
2007,07,13,04,52,15.30
2007,07,13,04,53,15.30
2007,07,13,04,54,15.30
2007,07,13,04,55,15.30
2007,07,13,04,56,15.30
2007,07,13,04,57,15.20
2007,07,13,04,58,15.20
2007,07,13,04,59,15.20
2007,07,13,05,00,15.10
2007,07,13,05,01,15.10
2007,07,13,05,02,15.10
2007,07,13,05,03,15.10
2007,07,13,05,04,15.00
2007,07,13,05,05,15.00
2007,07,13,05,06,15.00
2007,07,13,05,07,15.00
2007,07,13,05,08,15.00
2007,07,13,05,09,15.00
2007,07,13,05,10,15.00
2007,07,13,05,11,15.00
2007,07,13,05,12,14.90
2007,07,13,05,13,14.90
2007,07,13,05,14,14.90
2007,07,13,05,15,14.90
2007,07,13,05,16,14.90
2007,07,13,05,17,14.90
2007,07,13,05,18,14.90
2007,07,13,05,19,14.90
2007,07,13,05,20,14.90
2007,07,13,05,21,14.90
2007,07,13,05,22,14.80
2007,07,13,05,23,14.80
2007,07,13,05,24,14.80
2007,07,13,05,25,14.80
2007,07,13,05,26,14.80
2007,07,13,05,27,14.80
2007,07,13,05,28,14.80
2007,07,13,05,29,14.80
2007,07,13,05,30,14.80
2007,07,13,05,31,14.80
2007,07,13,05,32,14.80
2007,07,13,05,33,14.80
2007,07,13,05,34,14.70
2007,07,13,05,35,14.70
2007,07,13,05,36,14.70
2007,07,13,05,37,14.70
2007,07,13,05,38,14.70
2007,07,13,05,39,14.70
2007,07,13,05,40,14.70
2007,07,13,05,41,14.70
2007,07,13,05,42,14.70
2007,07,13,05,43,14.70
2007,07,13,05,44,14.70
2007,07,13,05,45,14.70
2007,07,13,05,46,14.70
2007,07,13,05,47,14.70
2007,07,13,05,48,14.70
2007,07,13,05,49,14.70
2007,07,13,05,50,14.70
2007,07,13,05,51,14.70
2007,07,13,05,52,14.70
2007,07,13,05,53,14.70
2007,07,13,05,54,14.70
2007,07,13,05,55,14.70
2007,07,13,05,56,14.70
2007,07,13,05,57,14.80
2007,07,13,05,58,14.80
2007,07,13,05,59,14.80
2007,07,13,06,00,14.80
2007,07,13,06,01,14.80
2007,07,13,06,02,14.80
2007,07,13,06,03,14.80
2007,07,13,06,04,14.80
2007,07,13,06,05,14.80
2007,07,13,06,06,14.80
2007,07,13,06,07,14.80
2007,07,13,06,08,14.80
2007,07,13,06,09,14.80
2007,07,13,06,10,14.80
2007,07,13,06,11,14.80
2007,07,13,06,12,14.80
2007,07,13,06,13,14.90
2007,07,13,06,14,14.90
2007,07,13,06,15,14.90
2007,07,13,06,16,14.90
2007,07,13,06,17,14.90
2007,07,13,06,18,14.90
2007,07,13,06,19,14.90
2007,07,13,06,20,14.90
2007,07,13,06,21,14.90
2007,07,13,06,22,14.90
2007,07,13,06,23,14.90
2007,07,13,06,24,14.90
2007,07,13,06,25,14.90
2007,07,13,06,26,14.90
2007,07,13,06,27,14.90
2007,07,13,06,28,14.90
2007,07,13,06,29,14.90
2007,07,13,06,30,15.00
2007,07,13,06,31,15.00
2007,07,13,06,32,15.00
2007,07,13,06,33,15.00
2007,07,13,06,34,15.00
2007,07,13,06,35,15.00
2007,07,13,06,36,15.00
2007,07,13,06,37,15.00
2007,07,13,06,38,15.00
2007,07,13,06,39,15.00
2007,07,13,06,40,15.00
2007,07,13,06,41,15.00
2007,07,13,06,42,15.10
2007,07,13,06,43,15.10
2007,07,13,06,44,15.10
2007,07,13,06,45,15.10
2007,07,13,06,46,15.20
2007,07,13,06,47,15.20
2007,07,13,06,48,15.30
2007,07,13,06,49,15.30
2007,07,13,06,50,15.30
2007,07,13,06,51,15.40
2007,07,13,06,52,15.40
2007,07,13,06,53,15.50
2007,07,13,06,54,15.60
2007,07,13,06,55,15.60
2007,07,13,06,56,15.60
2007,07,13,06,57,15.60
2007,07,13,06,58,15.70
2007,07,13,06,59,15.80
2007,07,13,07,00,15.80
2007,07,13,07,01,15.80
2007,07,13,07,02,15.90
2007,07,13,07,03,15.90
2007,07,13,07,04,15.90
2007,07,13,07,05,16.00
2007,07,13,07,06,16.10
2007,07,13,07,07,16.10
2007,07,13,07,08,16.20
2007,07,13,07,09,16.20
2007,07,13,07,10,16.20
2007,07,13,07,11,16.20
2007,07,13,07,12,16.30
2007,07,13,07,13,16.30
2007,07,13,07,14,16.40
2007,07,13,07,15,16.40
2007,07,13,07,16,16.40
2007,07,13,07,17,16.60
2007,07,13,07,18,16.60
2007,07,13,07,19,16.60
2007,07,13,07,20,16.60
2007,07,13,07,21,16.40
2007,07,13,07,22,16.40
2007,07,13,07,23,16.40
2007,07,13,07,24,16.60
2007,07,13,07,25,16.60
2007,07,13,07,26,16.60
2007,07,13,07,27,16.60
2007,07,13,07,28,16.60
2007,07,13,07,29,16.60
2007,07,13,07,30,16.60
2007,07,13,07,31,16.60
2007,07,13,07,32,16.70
2007,07,13,07,33,16.70
2007,07,13,07,34,16.80
2007,07,13,07,35,16.90
2007,07,13,07,36,16.90
2007,07,13,07,37,17.00
2007,07,13,07,38,17.00
2007,07,13,07,39,17.10
2007,07,13,07,40,17.20
2007,07,13,07,41,17.20
2007,07,13,07,42,17.20
2007,07,13,07,43,17.20
2007,07,13,07,44,17.20
2007,07,13,07,45,17.30
2007,07,13,07,46,17.30
2007,07,13,07,47,17.40
2007,07,13,07,48,17.40
2007,07,13,07,49,17.40
2007,07,13,07,50,17.40
2007,07,13,07,51,17.40
2007,07,13,07,52,17.30
2007,07,13,07,53,17.30
2007,07,13,07,54,17.30
2007,07,13,07,55,17.30
2007,07,13,07,56,17.30
2007,07,13,07,57,17.40
2007,07,13,07,58,17.50
2007,07,13,07,59,17.50
2007,07,13,08,00,17.50
2007,07,13,08,01,17.50
2007,07,13,08,02,17.50
2007,07,13,08,03,17.50
2007,07,13,08,04,17.50
2007,07,13,08,05,17.50
2007,07,13,08,06,17.60
2007,07,13,08,07,17.60
2007,07,13,08,08,17.70
2007,07,13,08,09,17.80
2007,07,13,08,10,17.80
2007,07,13,08,11,17.90
2007,07,13,08,12,17.90
2007,07,13,08,13,18.10
2007,07,13,08,14,18.10
2007,07,13,08,15,18.10
2007,07,13,08,16,18.10
2007,07,13,08,17,18.20
2007,07,13,08,18,18.20
2007,07,13,08,19,18.20
2007,07,13,08,20,18.20
2007,07,13,08,21,18.30
2007,07,13,08,22,18.40
2007,07,13,08,23,18.40
2007,07,13,08,24,18.40
2007,07,13,08,25,18.40
2007,07,13,08,26,18.50
2007,07,13,08,27,18.50
2007,07,13,08,28,18.50
2007,07,13,08,29,18.50
2007,07,13,08,30,18.50
2007,07,13,08,31,18.60
2007,07,13,08,32,18.70
2007,07,13,08,33,18.70
2007,07,13,08,34,18.80
2007,07,13,08,35,19.00
2007,07,13,08,36,19.10
2007,07,13,08,37,19.20
2007,07,13,08,38,19.30
2007,07,13,08,39,19.40
2007,07,13,08,40,19.30
2007,07,13,08,41,19.30
2007,07,13,08,42,19.30
2007,07,13,08,43,19.20
2007,07,13,08,44,19.10
2007,07,13,08,45,19.10
2007,07,13,08,46,19.10
2007,07,13,08,47,19.00
2007,07,13,08,48,18.90
2007,07,13,08,49,18.80
2007,07,13,08,50,18.70
2007,07,13,08,51,18.60
2007,07,13,08,52,18.60
2007,07,13,08,53,18.50
2007,07,13,08,54,18.50
2007,07,13,08,55,18.50
2007,07,13,08,56,18.50
2007,07,13,08,57,18.60
2007,07,13,08,58,18.60
2007,07,13,08,59,18.50
2007,07,13,09,00,18.50
2007,07,13,09,01,18.50
2007,07,13,09,02,18.50
2007,07,13,09,03,18.60
2007,07,13,09,04,18.60
2007,07,13,09,05,18.60
2007,07,13,09,06,18.70
2007,07,13,09,07,18.80
2007,07,13,09,08,18.90
2007,07,13,09,09,19.00
2007,07,13,09,10,19.10
2007,07,13,09,11,19.10
2007,07,13,09,12,19.00
2007,07,13,09,13,18.90
2007,07,13,09,14,18.90
2007,07,13,09,15,18.90
2007,07,13,09,16,18.90
2007,07,13,09,17,19.00
2007,07,13,09,18,19.10
2007,07,13,09,19,19.20
2007,07,13,09,20,19.40
2007,07,13,09,21,19.50
2007,07,13,09,22,19.60
2007,07,13,09,23,19.70
2007,07,13,09,24,19.80
2007,07,13,09,25,19.90
2007,07,13,09,26,19.90
2007,07,13,09,27,19.80
2007,07,13,09,28,19.70
2007,07,13,09,29,19.70
2007,07,13,09,30,19.70
2007,07,13,09,31,19.70
2007,07,13,09,32,19.60
2007,07,13,09,33,19.60
2007,07,13,09,34,19.50
2007,07,13,09,35,19.50
2007,07,13,09,36,19.50
2007,07,13,09,37,19.50
2007,07,13,09,38,19.50
2007,07,13,09,39,19.50
2007,07,13,09,40,19.50
2007,07,13,09,41,19.40
2007,07,13,09,42,19.40
2007,07,13,09,43,19.50
2007,07,13,09,44,19.60
2007,07,13,09,45,19.70
2007,07,13,09,46,19.70
2007,07,13,09,47,19.80
2007,07,13,09,48,19.90
2007,07,13,09,49,19.90
2007,07,13,09,50,19.90
2007,07,13,09,51,19.90
2007,07,13,09,52,20.10
2007,07,13,09,53,20.10
2007,07,13,09,54,20.20
2007,07,13,09,55,20.20
2007,07,13,09,56,20.30
2007,07,13,09,57,20.40
2007,07,13,09,58,20.50
2007,07,13,09,59,20.60
2007,07,13,10,00,20.70
2007,07,13,10,01,20.70
2007,07,13,10,02,20.70
2007,07,13,10,03,20.70
2007,07,13,10,04,20.60
2007,07,13,10,05,20.70
2007,07,13,10,06,20.70
2007,07,13,10,07,20.70
2007,07,13,10,08,20.70
2007,07,13,10,09,20.60
2007,07,13,10,10,20.60
2007,07,13,10,11,20.60
2007,07,13,10,12,20.60
2007,07,13,10,13,20.70
2007,07,13,10,14,20.70
2007,07,13,10,15,20.80
2007,07,13,10,16,21.00
2007,07,13,10,17,21.10
2007,07,13,10,18,21.10
2007,07,13,10,19,20.90
2007,07,13,10,20,20.80
2007,07,13,10,21,20.80
2007,07,13,10,22,20.80
2007,07,13,10,23,20.90
2007,07,13,10,24,20.90
2007,07,13,10,25,20.90
2007,07,13,10,26,20.90
2007,07,13,10,27,20.80
2007,07,13,10,28,20.80
2007,07,13,10,29,20.80
2007,07,13,10,30,20.80
2007,07,13,10,31,20.70
2007,07,13,10,32,20.70
2007,07,13,10,33,20.70
2007,07,13,10,34,20.60
2007,07,13,10,35,20.50
2007,07,13,10,36,20.50
2007,07,13,10,37,20.60
2007,07,13,10,38,20.60
2007,07,13,10,39,20.50
2007,07,13,10,40,20.50
2007,07,13,10,41,20.50
2007,07,13,10,42,20.50
2007,07,13,10,43,20.50
2007,07,13,10,44,20.50
2007,07,13,10,45,20.40
2007,07,13,10,46,20.40
2007,07,13,10,47,20.20
2007,07,13,10,48,20.10
2007,07,13,10,49,20.00
2007,07,13,10,50,19.90
2007,07,13,10,51,19.70
2007,07,13,10,52,19.50
2007,07,13,10,53,19.30
2007,07,13,10,54,19.20
2007,07,13,10,55,19.10
2007,07,13,10,56,19.10
2007,07,13,10,57,19.10
2007,07,13,10,58,19.10
2007,07,13,10,59,19.10
2007,07,13,11,00,19.10
2007,07,13,11,01,19.10
2007,07,13,11,02,19.20
2007,07,13,11,03,19.20
2007,07,13,11,04,19.00
2007,07,13,11,05,18.90
2007,07,13,11,06,18.90
2007,07,13,11,07,18.80
2007,07,13,11,08,18.80
2007,07,13,11,09,18.70
2007,07,13,11,10,18.70
2007,07,13,11,11,18.70
2007,07,13,11,12,18.70
2007,07,13,11,13,18.70
2007,07,13,11,14,18.70
2007,07,13,11,15,18.70
2007,07,13,11,16,18.70
2007,07,13,11,17,18.70
2007,07,13,11,18,18.80
2007,07,13,11,19,18.80
2007,07,13,11,20,18.80
2007,07,13,11,21,18.70
2007,07,13,11,22,18.50
2007,07,13,11,23,18.40
2007,07,13,11,24,18.30
2007,07,13,11,25,18.20
2007,07,13,11,26,18.20
2007,07,13,11,27,18.20
2007,07,13,11,28,18.10
2007,07,13,11,29,18.00
2007,07,13,11,30,17.90
2007,07,13,11,31,17.90
2007,07,13,11,32,17.80
2007,07,13,11,33,17.70
2007,07,13,11,34,17.60
2007,07,13,11,35,17.40
2007,07,13,11,36,17.30
2007,07,13,11,37,17.30
2007,07,13,11,38,17.30
2007,07,13,11,39,17.30
2007,07,13,11,40,17.30
2007,07,13,11,41,17.40
2007,07,13,11,42,17.50
2007,07,13,11,43,17.70
2007,07,13,11,44,17.70
2007,07,13,11,45,17.80
2007,07,13,11,46,17.90
2007,07,13,11,47,17.90
2007,07,13,11,48,18.00
2007,07,13,11,49,18.10
2007,07,13,11,50,18.10
2007,07,13,11,51,18.20
2007,07,13,11,52,18.20
2007,07,13,11,53,18.30
2007,07,13,11,54,18.40
2007,07,13,11,55,18.40
2007,07,13,11,56,18.40
2007,07,13,11,57,18.50
2007,07,13,11,58,18.60
2007,07,13,11,59,18.60
2007,07,13,12,00,18.70
2007,07,13,12,01,18.70
2007,07,13,12,02,18.60
2007,07,13,12,03,18.60
2007,07,13,12,04,18.70
2007,07,13,12,05,18.70
2007,07,13,12,06,18.80
2007,07,13,12,07,18.90
2007,07,13,12,08,19.00
2007,07,13,12,09,19.10
2007,07,13,12,10,19.30
2007,07,13,12,11,19.40
2007,07,13,12,12,19.40
2007,07,13,12,13,19.60
2007,07,13,12,14,19.70
2007,07,13,12,15,19.80
2007,07,13,12,16,19.90
2007,07,13,12,17,19.80
2007,07,13,12,18,19.70
2007,07,13,12,19,19.70
2007,07,13,12,20,19.70
2007,07,13,12,21,19.60
2007,07,13,12,22,19.60
2007,07,13,12,23,19.50
2007,07,13,12,24,19.40
2007,07,13,12,25,19.30
2007,07,13,12,26,19.40
2007,07,13,12,27,19.40
2007,07,13,12,28,19.40
2007,07,13,12,29,19.50
2007,07,13,12,30,19.50
2007,07,13,12,31,19.50
2007,07,13,12,32,19.70
2007,07,13,12,33,19.80
2007,07,13,12,34,19.70
2007,07,13,12,35,19.70
2007,07,13,12,36,19.70
2007,07,13,12,37,19.80
2007,07,13,12,38,19.70
2007,07,13,12,39,19.70
2007,07,13,12,40,19.80
2007,07,13,12,41,19.70
2007,07,13,12,42,19.60
2007,07,13,12,43,19.60
2007,07,13,12,44,19.50
2007,07,13,12,45,19.50
2007,07,13,12,46,19.60
2007,07,13,12,47,19.80
2007,07,13,12,48,19.90
2007,07,13,12,49,19.90
2007,07,13,12,50,19.90
2007,07,13,12,51,19.90
2007,07,13,12,52,19.80
2007,07,13,12,53,19.80
2007,07,13,12,54,19.80
2007,07,13,12,55,19.80
2007,07,13,12,56,19.90
2007,07,13,12,57,19.90
2007,07,13,12,58,19.90
2007,07,13,12,59,19.90
2007,07,13,13,00,19.90
2007,07,13,13,01,19.90
2007,07,13,13,02,19.90
2007,07,13,13,03,19.90
2007,07,13,13,04,19.90
2007,07,13,13,05,20.00
2007,07,13,13,06,20.10
2007,07,13,13,07,20.20
2007,07,13,13,08,20.20
2007,07,13,13,09,20.20
2007,07,13,13,10,20.10
2007,07,13,13,11,20.20
2007,07,13,13,12,20.20
2007,07,13,13,13,20.20
2007,07,13,13,14,20.30
2007,07,13,13,15,20.20
2007,07,13,13,16,20.20
2007,07,13,13,17,20.20
2007,07,13,13,18,20.10
2007,07,13,13,19,20.10
2007,07,13,13,20,20.10
2007,07,13,13,21,20.10
2007,07,13,13,22,20.30
2007,07,13,13,23,20.20
2007,07,13,13,24,20.20
2007,07,13,13,25,20.10
2007,07,13,13,26,20.10
2007,07,13,13,27,20.20
2007,07,13,13,28,20.20
2007,07,13,13,29,20.20
2007,07,13,13,30,20.40
2007,07,13,13,31,20.40
2007,07,13,13,32,20.50
2007,07,13,13,33,20.50
2007,07,13,13,34,20.60
2007,07,13,13,35,20.70
2007,07,13,13,36,20.90
2007,07,13,13,37,21.00
2007,07,13,13,38,21.00
2007,07,13,13,39,20.80
2007,07,13,13,40,20.50
2007,07,13,13,41,20.40
2007,07,13,13,42,20.30
2007,07,13,13,43,20.20
2007,07,13,13,44,20.10
2007,07,13,13,45,20.10
2007,07,13,13,46,20.20
2007,07,13,13,47,20.20
2007,07,13,13,48,20.20
2007,07,13,13,49,20.20
2007,07,13,13,50,20.10
2007,07,13,13,51,20.20
2007,07,13,13,52,20.40
2007,07,13,13,53,20.40
2007,07,13,13,54,20.50
2007,07,13,13,55,20.60
2007,07,13,13,56,20.70
2007,07,13,13,57,20.70
2007,07,13,13,58,20.90
2007,07,13,13,59,21.00
2007,07,13,14,00,21.20
2007,07,13,14,01,21.20
2007,07,13,14,02,21.30
2007,07,13,14,03,21.30
2007,07,13,14,04,21.30
2007,07,13,14,05,21.30
2007,07,13,14,06,21.30
2007,07,13,14,07,21.30
2007,07,13,14,08,21.30
2007,07,13,14,09,21.30
2007,07,13,14,10,21.50
2007,07,13,14,11,21.60
2007,07,13,14,12,21.60
2007,07,13,14,13,21.60
2007,07,13,14,14,21.60
2007,07,13,14,15,21.60
2007,07,13,14,16,21.60
2007,07,13,14,17,21.70
2007,07,13,14,18,21.60
2007,07,13,14,19,21.60
2007,07,13,14,20,21.60
2007,07,13,14,21,21.70
2007,07,13,14,22,21.70
2007,07,13,14,23,21.60
2007,07,13,14,24,21.60
2007,07,13,14,25,21.60
2007,07,13,14,26,21.60
2007,07,13,14,27,21.80
2007,07,13,14,28,21.80
2007,07,13,14,29,21.70
2007,07,13,14,30,21.60
2007,07,13,14,31,21.60
2007,07,13,14,32,21.60
2007,07,13,14,33,21.60
2007,07,13,14,34,21.60
2007,07,13,14,35,21.70
2007,07,13,14,36,21.80
2007,07,13,14,37,21.80
2007,07,13,14,38,21.70
2007,07,13,14,39,21.80
2007,07,13,14,40,21.80
2007,07,13,14,41,21.80
2007,07,13,14,42,21.70
2007,07,13,14,43,21.80
2007,07,13,14,44,21.90
2007,07,13,14,45,21.90
2007,07,13,14,46,21.90
2007,07,13,14,47,21.80
2007,07,13,14,48,21.80
2007,07,13,14,49,21.90
2007,07,13,14,50,22.00
2007,07,13,14,51,22.10
2007,07,13,14,52,22.30
2007,07,13,14,53,22.40
2007,07,13,14,54,22.40
2007,07,13,14,55,22.50
2007,07,13,14,56,22.40
2007,07,13,14,57,22.50
2007,07,13,14,58,22.40
2007,07,13,14,59,22.40
2007,07,13,15,00,22.30
2007,07,13,15,01,22.30
2007,07,13,15,02,22.20
2007,07,13,15,03,22.20
2007,07,13,15,04,22.20
2007,07,13,15,05,22.30
2007,07,13,15,06,22.40
2007,07,13,15,07,22.40
2007,07,13,15,08,22.40
2007,07,13,15,09,22.30
2007,07,13,15,10,22.40
2007,07,13,15,11,22.40
2007,07,13,15,12,22.50
2007,07,13,15,13,22.60
2007,07,13,15,14,22.60
2007,07,13,15,15,22.60
2007,07,13,15,16,22.50
2007,07,13,15,17,22.50
2007,07,13,15,18,22.60
2007,07,13,15,19,22.60
2007,07,13,15,20,22.60
2007,07,13,15,21,22.60
2007,07,13,15,22,22.60
2007,07,13,15,23,22.70
2007,07,13,15,24,22.70
2007,07,13,15,25,22.70
2007,07,13,15,26,22.80
2007,07,13,15,27,22.90
2007,07,13,15,28,22.90
2007,07,13,15,29,22.90
2007,07,13,15,30,22.90
2007,07,13,15,31,22.90
2007,07,13,15,32,22.90
2007,07,13,15,33,22.80
2007,07,13,15,34,22.90
2007,07,13,15,35,22.90
2007,07,13,15,36,22.90
2007,07,13,15,37,22.90
2007,07,13,15,38,22.80
2007,07,13,15,39,22.80
2007,07,13,15,40,22.80
2007,07,13,15,41,22.80
2007,07,13,15,42,22.90
2007,07,13,15,43,22.90
2007,07,13,15,44,22.90
2007,07,13,15,45,22.90
2007,07,13,15,46,22.90
2007,07,13,15,47,23.00
2007,07,13,15,48,23.10
2007,07,13,15,49,23.00
2007,07,13,15,50,23.00
2007,07,13,15,51,23.10
2007,07,13,15,52,23.10
2007,07,13,15,53,23.10
2007,07,13,15,54,23.00
2007,07,13,15,55,22.90
2007,07,13,15,56,22.80
2007,07,13,15,57,22.70
2007,07,13,15,58,22.70
2007,07,13,15,59,22.70
2007,07,13,16,00,22.80
2007,07,13,16,01,22.80
2007,07,13,16,02,22.80
2007,07,13,16,03,22.80
2007,07,13,16,04,22.90
2007,07,13,16,05,23.00
2007,07,13,16,06,23.10
2007,07,13,16,07,23.20
2007,07,13,16,08,23.20
2007,07,13,16,09,23.20
2007,07,13,16,10,23.30
2007,07,13,16,11,23.30
2007,07,13,16,12,23.30
2007,07,13,16,13,23.10
2007,07,13,16,14,23.10
2007,07,13,16,15,23.10
2007,07,13,16,16,23.00
2007,07,13,16,17,22.90
2007,07,13,16,18,23.00
2007,07,13,16,19,23.10
2007,07,13,16,20,23.20
2007,07,13,16,21,23.20
2007,07,13,16,22,23.20
2007,07,13,16,23,23.30
2007,07,13,16,24,23.30
2007,07,13,16,25,23.30
2007,07,13,16,26,23.40
2007,07,13,16,27,23.40
2007,07,13,16,28,23.50
2007,07,13,16,29,23.60
2007,07,13,16,30,23.70
2007,07,13,16,31,23.70
2007,07,13,16,32,23.70
2007,07,13,16,33,23.70
2007,07,13,16,34,23.70
2007,07,13,16,35,23.70
2007,07,13,16,36,23.70
2007,07,13,16,37,23.60
2007,07,13,16,38,23.40
2007,07,13,16,39,23.30
2007,07,13,16,40,23.30
2007,07,13,16,41,23.40
2007,07,13,16,42,23.40
2007,07,13,16,43,23.50
2007,07,13,16,44,23.60
2007,07,13,16,45,23.70
2007,07,13,16,46,23.70
2007,07,13,16,47,23.90
2007,07,13,16,48,23.90
2007,07,13,16,49,23.90
2007,07,13,16,50,23.90
2007,07,13,16,51,23.90
2007,07,13,16,52,23.80
2007,07,13,16,53,23.80
2007,07,13,16,54,23.80
2007,07,13,16,55,23.80
2007,07,13,16,56,23.80
2007,07,13,16,57,23.80
2007,07,13,16,58,23.80
2007,07,13,16,59,23.70
2007,07,13,17,00,23.70
2007,07,13,17,01,23.70
2007,07,13,17,02,23.70
2007,07,13,17,03,23.70
2007,07,13,17,04,23.70
2007,07,13,17,05,23.70
2007,07,13,17,06,23.70
2007,07,13,17,07,23.70
2007,07,13,17,08,23.70
2007,07,13,17,09,23.70
2007,07,13,17,10,23.60
2007,07,13,17,11,23.60
2007,07,13,17,12,23.60
2007,07,13,17,13,23.60
2007,07,13,17,14,23.40
2007,07,13,17,15,23.40
2007,07,13,17,16,23.30
2007,07,13,17,17,23.30
2007,07,13,17,18,23.30
2007,07,13,17,19,23.30